| time (UTC) | temp F | wind direction | speed MPH | gust MPH | rain 1hr in | rain 24hr in | rain mn in | humidity % | barometer mb |
| 20260507230855 | 54 | 356 | 0.0 | 2.0 | 0.00 | 0.55 | 0.55 | 97 | 1004.7 |
| 20260507224753 | 54 | 356 | 1.0 | 3.0 | 0.00 | 0.55 | 0.55 | 98 | 1004.7 |
| 20260507223737 | 54 | 354 | 0.0 | 2.0 | 0.00 | 0.55 | 0.55 | 98 | 1004.9 |
| 20260507222730 | 54 | 1 | 0.0 | 3.0 | 0.00 | 0.55 | 0.55 | 98 | 1005.3 |
| 20260507221716 | 54 | 4 | 0.0 | 3.0 | 0.00 | 0.55 | 0.55 | 98 | 1005.3 |
| 20260507213228 | 54 | 349 | 0.0 | 3.0 | 0.00 | 0.55 | 0.55 | 98 | 1004.7 |
| 20260507212217 | 54 | 359 | 0.0 | 3.0 | 0.00 | 0.55 | 0.55 | 98 | 1004.7 |
| 20260507211201 | 54 | 349 | 0.0 | 2.0 | 0.00 | 0.55 | 0.55 | 98 | 1004.7 |
| 20260507210127 | 54 | 356 | 0.0 | 3.0 | 0.00 | 0.55 | 0.55 | 98 | 1004.7 |
| 20260507205122 | 54 | 347 | 1.0 | 3.0 | 0.00 | 0.55 | 0.55 | 98 | 1004.2 |
| 20260507204049 | 55 | 346 | 1.0 | 3.0 | 0.00 | 0.55 | 0.55 | 98 | 1004.2 |
| 20260507203018 | 55 | 359 | 1.0 | 3.0 | 0.00 | 0.55 | 0.55 | 98 | 1004.2 |
| 20260507202040 | 55 | 356 | 1.0 | 2.0 | 0.00 | 0.55 | 0.54 | 98 | 1004.3 |
| 20260507201020 | 54 | 110 | 1.0 | 3.0 | 0.00 | 0.55 | 0.54 | 98 | 1004.7 |
| 20260507194838 | 54 | 141 | 1.0 | 5.0 | 0.00 | 0.55 | 0.54 | 98 | 1004.7 |
| 20260507193838 | 54 | 349 | 2.0 | 5.0 | 0.00 | 0.55 | 0.54 | 98 | 1004.8 |
| 20260507192843 | 55 | 0 | 1.0 | 3.0 | 0.00 | 0.54 | 0.53 | 98 | 1004.7 |
| 20260507191820 | 55 | 122 | 0.0 | 3.0 | 0.00 | 0.54 | 0.53 | 98 | 1004.7 |
| 20260507190758 | 55 | 0 | 1.0 | 4.0 | 0.00 | 0.54 | 0.53 | 98 | 1004.1 |
| 20260507185735 | 55 | 1 | 1.0 | 4.0 | 0.00 | 0.54 | 0.53 | 98 | 1004.0 |
| 20260507184733 | 56 | 329 | 1.0 | 4.0 | 0.00 | 0.54 | 0.53 | 98 | 1004.0 |
| 20260507183721 | 56 | 342 | 1.0 | 6.0 | 0.00 | 0.53 | 0.52 | 98 | 1003.9 |
| 20260507182727 | 56 | 0 | 2.0 | 6.0 | 0.00 | 0.53 | 0.52 | 98 | 1004.0 |
| 20260507181749 | 56 | 274 | 1.0 | 5.0 | 0.00 | 0.53 | 0.52 | 98 | 1004.0 |
| 20260507180812 | 56 | 359 | 1.0 | 7.0 | 0.00 | 0.53 | 0.52 | 98 | 1004.1 |
| 20260507175747 | 56 | 7 | 2.0 | 7.0 | 0.00 | 0.52 | 0.51 | 98 | 1004.8 |
| 20260507173601 | 57 | 347 | 1.0 | 6.0 | 0.00 | 0.52 | 0.51 | 98 | 1004.1 |
| 20260507172528 | 57 | 349 | 2.0 | 8.0 | 0.00 | 0.51 | 0.51 | 98 | 1003.6 |
| 20260507171500 | 57 | 338 | 3.0 | 8.0 | 0.00 | 0.51 | 0.51 | 98 | 1003.6 |
| 20260507165306 | 58 | 359 | 3.0 | 8.0 | 0.00 | 0.51 | 0.50 | 97 | 1003.6 |
| 20260507164232 | 60 | 353 | 2.0 | 4.0 | 0.00 | 0.50 | 0.49 | 97 | 1004.4 |
| 20260507162111 | 63 | 295 | 1.0 | 10.0 | 0.03 | 0.49 | 0.48 | 97 | 1004.0 |
| 20260507155855 | 66 | 64 | 0.0 | 2.0 | 0.03 | 0.48 | 0.48 | 99 | 1003.8 |
| 20260507154838 | 66 | 214 | 0.0 | 1.0 | 0.04 | 0.48 | 0.47 | 99 | 1003.8 |
| 20260507153901 | 66 | 311 | 0.0 | 0.0 | 0.04 | 0.47 | 0.46 | 99 | 1003.8 |
| 20260507152850 | 67 | 198 | 0.0 | 1.0 | 0.04 | 0.46 | 0.45 | 99 | 1003.9 |
| 20260507151817 | 67 | 77 | 0.0 | 0.0 | 0.05 | 0.45 | 0.44 | 99 | 1003.9 |
| 20260507150840 | 67 | 27 | 0.0 | 0.0 | 0.06 | 0.44 | 0.44 | 99 | 1003.9 |
| 20260507145854 | 66 | 23 | 0.0 | 0.0 | 0.06 | 0.44 | 0.43 | 99 | 1003.9 |
| 20260507144904 | 66 | 23 | 0.0 | 0.0 | 0.06 | 0.42 | 0.42 | 99 | 1003.9 |
| 20260507143848 | 66 | 12 | 0.0 | 2.0 | 0.04 | 0.41 | 0.40 | 99 | 1003.9 |
| 20260507142901 | 67 | 327 | 0.0 | 2.0 | 0.03 | 0.40 | 0.40 | 99 | 1003.9 |
| 20260507141912 | 67 | 159 | 0.0 | 1.0 | 0.04 | 0.40 | 0.39 | 99 | 1003.9 |
| 20260507140936 | 66 | 122 | 0.0 | 1.0 | 0.03 | 0.39 | 0.38 | 99 | 1004.3 |
| 20260507134819 | 66 | 61 | 0.0 | 1.0 | 0.03 | 0.37 | 0.37 | 99 | 1004.4 |
| 20260507131558 | 66 | 80 | 0.0 | 2.0 | 0.00 | 0.36 | 0.35 | 99 | 1004.2 |
| 20260507130530 | 66 | 82 | 0.0 | 0.0 | 0.00 | 0.36 | 0.35 | 99 | 1004.3 |
| 20260507125503 | 65 | 57 | 0.0 | 1.0 | 0.00 | 0.36 | 0.35 | 99 | 1004.3 |
| 20260507124457 | 65 | 10 | 0.0 | 0.0 | 0.00 | 0.36 | 0.35 | 99 | 1004.3 |
| 20260507123426 | 65 | 73 | 0.0 | 0.0 | 0.00 | 0.36 | 0.35 | 99 | 1004.4 |
| 20260507121316 | 65 | 184 | 0.0 | 0.0 | 0.07 | 0.36 | 0.35 | 99 | 1004.5 |
| 20260507120320 | 65 | 184 | 0.0 | 0.0 | 0.12 | 0.34 | 0.34 | 99 | 1004.5 |
| 20260507114129 | 65 | 222 | 0.0 | 0.0 | 0.18 | 0.29 | 0.29 | 99 | 1004.9 |
| 20260507113150 | 65 | 222 | 0.0 | 0.0 | 0.23 | 0.26 | 0.26 | 99 | 1004.9 |
| 20260507112154 | 65 | 65 | 0.0 | 0.0 | 0.28 | 0.22 | 0.22 | 98 | 1004.9 |
| 20260507105959 | 65 | 94 | 0.0 | 0.0 | 0.16 | 0.18 | 0.17 | 98 | 1004.4 |
| 20260507104927 | 65 | 94 | 0.0 | 0.0 | 0.15 | 0.14 | 0.14 | 98 | 1004.3 |
| 20260507103936 | 65 | 94 | 0.0 | 0.0 | 0.00 | 0.12 | 0.11 | 98 | 1004.5 |
| 20260507102929 | 64 | 94 | 0.0 | 0.0 | 0.00 | 0.11 | 0.11 | 98 | 1004.5 |
| 20260507100856 | 64 | 94 | 0.0 | 0.0 | 0.00 | 0.11 | 0.11 | 98 | 1004.4 |
| 20260507095842 | 64 | 94 | 0.0 | 0.0 | 0.00 | 0.11 | 0.11 | 98 | 1004.4 |
| 20260507092544 | 64 | 94 | 0.0 | 0.0 | 0.00 | 0.11 | 0.11 | 98 | 1004.4 |
| 20260507091509 | 65 | 65 | 0.0 | 2.0 | 0.00 | 0.11 | 0.11 | 98 | 1004.4 |
| 20260507090450 | 65 | 62 | 0.0 | 3.0 | 0.00 | 0.11 | 0.11 | 98 | 1004.8 |
| 20260507085430 | 65 | 125 | 0.0 | 3.0 | 0.03 | 0.11 | 0.10 | 98 | 1004.6 |
| 20260507084417 | 65 | 105 | 0.0 | 3.0 | 0.10 | 0.10 | 0.10 | 98 | 1004.6 |
| 20260507083407 | 65 | 84 | 0.0 | 2.0 | 0.00 | 0.09 | 0.08 | 98 | 1005.1 |
| 20260507082407 | 65 | 51 | 0.0 | 1.0 | 0.00 | 0.09 | 0.08 | 98 | 1004.9 |
| 20260507081419 | 64 | 105 | 0.0 | 1.0 | 0.00 | 0.09 | 0.08 | 98 | 1004.9 |
| 20260507080411 | 65 | 105 | 0.0 | 1.0 | 0.00 | 0.09 | 0.08 | 98 | 1005.2 |
| 20260507074240 | 65 | 142 | 0.0 | 0.0 | 0.00 | 0.09 | 0.08 | 97 | 1005.4 |
| 20260507073241 | 65 | 142 | 0.0 | 1.0 | 0.00 | 0.09 | 0.08 | 97 | 1005.4 |
| 20260507072251 | 65 | 289 | 0.0 | 0.0 | 0.00 | 0.08 | 0.07 | 97 | 1005.4 |
| 20260507071304 | 65 | 289 | 0.0 | 1.0 | 0.00 | 0.08 | 0.07 | 97 | 1005.4 |
| 20260507065215 | 65 | 175 | 0.0 | 3.0 | 0.00 | 0.08 | 0.07 | 97 | 1006.1 |
| 20260507064234 | 65 | 127 | 0.0 | 2.0 | 0.00 | 0.08 | 0.07 | 97 | 1006.1 |
| 20260507063252 | 65 | 6 | 0.0 | 1.0 | 0.00 | 0.08 | 0.07 | 97 | 1006.1 |
| 20260507062221 | 65 | 71 | 0.0 | 0.0 | 0.00 | 0.08 | 0.07 | 97 | 1006.0 |
| 20260507061202 | 65 | 79 | 0.0 | 1.0 | 0.00 | 0.08 | 0.07 | 97 | 1006.0 |
| 20260507055038 | 65 | 25 | 0.0 | 0.0 | 0.03 | 0.08 | 0.07 | 96 | 1006.1 |
| 20260507054040 | 66 | 25 | 0.0 | 2.0 | 0.08 | 0.08 | 0.07 | 96 | 1006.3 |
| 20260507051909 | 66 | 58 | 0.0 | 0.0 | 0.03 | 0.06 | 0.05 | 95 | 1006.7 |
| 20260507050845 | 66 | 140 | 0.0 | 1.0 | 0.07 | 0.06 | 0.05 | 95 | 1006.0 |
| 20260507045840 | 66 | 192 | 0.0 | 8.0 | 0.15 | 0.04 | 0.04 | 94 | 1006.8 |
| 20260507044849 | 67 | 338 | 1.0 | 8.0 | 0.09 | 0.03 | 0.02 | 94 | 1006.8 |
| 20260507043814 | 67 | 18 | 0.0 | 4.0 | 0.00 | 0.01 | 0.00 | 94 | 1007.9 |
| 20260507042834 | 67 | 112 | 0.0 | 1.0 | 0.00 | 0.01 | 0.00 | 94 | 1007.7 |
| 20260507041815 | 67 | 32 | 0.0 | 2.0 | 0.00 | 0.00 | 0.00 | 93 | 1007.7 |
| 20260507040833 | 67 | 195 | 0.0 | 0.0 | 0.00 | 0.00 | 0.00 | 93 | 1007.1 |
| 20260507035827 | 67 | 161 | 0.0 | 0.0 | 0.00 | 0.00 | 0.00 | 92 | 1006.5 |
| 20260507034756 | 67 | 64 | 0.0 | 1.0 | 0.00 | 0.00 | 0.00 | 91 | 1006.5 |
| 20260507033743 | 68 | 65 | 0.0 | 0.0 | 0.00 | 0.00 | 0.00 | 91 | 1006.9 |
| 20260507032714 | 68 | 81 | 0.0 | 0.0 | 0.00 | 0.00 | 0.00 | 90 | 1006.9 |
| 20260507031705 | 68 | 1 | 0.0 | 0.0 | 0.00 | 0.00 | 0.00 | 89 | 1006.9 |
| 20260507030720 | 69 | 278 | 0.0 | 1.0 | 0.00 | 0.00 | 0.00 | 89 | 1006.7 |
| 20260507025651 | 68 | 6 | 0.0 | 1.0 | 0.00 | 0.00 | 0.00 | 89 | 1006.4 |
| 20260507024701 | 68 | 82 | 0.0 | 1.0 | 0.00 | 0.00 | 0.00 | 89 | 1006.4 |
| 20260507023659 | 68 | 49 | 0.0 | 0.0 | 0.00 | 0.00 | 0.00 | 90 | 1006.4 |
| 20260507022644 | 68 | 115 | 0.0 | 1.0 | 0.00 | 0.00 | 0.00 | 90 | 1006.1 |
| 20260507021618 | 68 | 51 | 0.0 | 1.0 | 0.00 | 0.00 | 0.00 | 90 | 1006.1 |
| 20260507020636 | 68 | 51 | 0.0 | 0.0 | 0.00 | 0.00 | 0.00 | 90 | 1006.4 |
| 20260507015646 | 68 | 51 | 0.0 | 0.0 | 0.00 | 0.00 | 0.00 | 90 | 1006.4 |
| 20260507014632 | 68 | 51 | 0.0 | 0.0 | 0.00 | 0.00 | 0.00 | 90 | 1006.4 |
| 20260507011436 | 68 | 8 | 0.0 | 0.0 | 0.00 | 0.00 | 0.00 | 89 | 1006.3 |
| 20260507005330 | 68 | 8 | 0.0 | 0.0 | 0.00 | 0.00 | 0.00 | 88 | 1006.1 |
| 20260507003147 | 69 | 65 | 0.0 | 0.0 | 0.00 | 0.00 | 0.00 | 86 | 1006.3 |
| 20260507002202 | 70 | 65 | 0.0 | 0.0 | 0.00 | 0.00 | 0.00 | 85 | 1006.4 |
| 20260507001139 | 70 | 65 | 0.0 | 0.0 | 0.00 | 0.00 | 0.00 | 84 | 1006.4 |
| 20260507000128 | 70 | 359 | 0.0 | 0.0 | 0.00 | 0.00 | 0.00 | 83 | 1006.4 |
| 20260506235053 | 71 | 150 | 0.0 | 0.0 | 0.00 | 0.00 | 0.00 | 82 | 1006.5 |
| 20260506234045 | 72 | 150 | 0.0 | 0.0 | 0.00 | 0.00 | 0.00 | 82 | 1006.3 |
| 20260506233058 | 72 | 153 | 0.0 | 3.0 | 0.00 | 0.00 | 0.00 | 80 | 1006.3 |